Location: Kaltenbach
(49.2000°N, 7.7500°E)
Time: 11:08:14
(UTC+00:00)

SJ 16-02 - Pass Details

Date: 24 January 2020
Orbit: 605 x 617 km, 75.0° (Epoch: 19 February)

Event Time Altitude Azimuth Distance (km) Brightness Sun altitude
Rises 16:53:42 0° 252° (WSW) 2,879 7.4 -7.0°
Reaches altitude 10° 16:56:53 10° 277° (W) 1,981 5.1 -7.5°
Maximum altitude 16:59:22 15° 311° (NW) 1,698 4.0 -7.9°
Drops below altitude 10° 17:01:52 10° 346° (NNW) 1,991 3.9 -8.3°
Sets 17:05:05 0° 11° (N) 2,903 4.5 -8.8°
